Location: Unspecified
(43.4354°N, 0.0000°E)
Time: 15:46:53
(UTC+00:00)

A-11 Canister half - Pass Details

Date: 27 June 2019
Orbit: 1514 x 1685 km, 47.2° (Epoch: 22 July)

Event Time Altitude Azimuth Distance (km) Brightness Sun altitude
Rises 11:36:33 0° 268° (W) 4,902 11.6 69.2°
Reaches altitude 10° 11:39:46 10° 270° (W) 3,897 11.2 69.3°
Maximum altitude 11:49:44 72° 355° (N) 1,682 10.3 69.7°
Drops below altitude 10° 11:59:20 10° 80° (E) 3,763 11.2 69.9°
Sets 12:02:23 0° 83° (E) 4,726 11.5 69.9°
